{"data":{"norad_id":62597,"epoch":"2026-05-25T00:54:09.238752Z","epoch_age_seconds":65569,"freshness":"FRESH","line1":"1 62597U 25008L   26145.03760693  .00156823  00000+0  12014-2 0  9990","line2":"2 62597  42.9991  25.7961 0002130 273.0202  87.0422 15.70864863 79295","mean_motion":15.70864863,"eccentricity":0.000213,"inclination_deg":42.9991,"raan_deg":25.7961,"arg_perigee_deg":273.0202,"mean_anomaly_deg":87.0422,"bstar":0.0012014,"rev_number":7929,"period_min":91.669247553855,"perigee_km":354.9895379058,"apogee_km":357.85846089155,"semimajor_km":6734.5609993987,"source":"CELESTRAK","updated_at":"2026-05-25T13:38:19.735070Z"}}